Current Weather Conditions: station 62001

sailwx.info

Last reported at 2017-Nov-18 07:26 UTC.
Time now 2018-Jul-17 01:45 UTC

Location: N 45°12' W 005°00'.
View on Google Maps.

See reports from other nearby stations

  
Tides and Currents Weather Stations Pressure Air Temp Water Temp Dewpoint Dewpoint Depression Visibility Wind Speed Wind Dir Waves Ship Positions
date/time (UTC)wind fromknots sea level pressurealtimeterstation pressurevisibilityair tempwater tempwave heightnotes
2018-Jul-17 00:00 320 13 19.1 1.8
2018-Jul-16 23:00 320 13 19.7 1.8
2018-Jul-16 22:00 320 12 20.4 2.0
2018-Jul-16 21:00 300 6 20.3 1.8
2018-Jul-16 19:00 320 14 20.9 1.6
2018-Jul-16 18:00 290 13 21.4 1.6
2018-Jul-16 17:00 280 14 21.4 1.4
2018-Jul-16 16:00 280 13 21.4 1.2
2018-Jul-16 15:00 280 14 21.1 1.2
2018-Jul-16 14:00 280 15 21.2 1.2
2018-Jul-16 13:00 280 14 21.1 1.2
2018-Jul-16 12:00 290 14 20.9 1.1
2018-Jul-16 11:00 290 13 20.9 1.1
2018-Jul-16 10:00 290 13 20.7 1.2
2018-Jul-16 09:00 280 18 20.7 1.1
2018-Jul-16 08:00 290 18 20.8 1.2
2018-Jul-16 07:00 300 15 20.9 1.0
2018-Jul-16 06:00 310 14 20.9 0.9
2018-Jul-16 05:00 300 15 21.0 0.8
2018-Jul-16 04:00 300 15 21.1 0.9
2018-Jul-16 03:00 300 13 21.2 0.8
2018-Jul-16 02:00 300 13 21.4 0.9
2018-Jul-16 01:00 310 14 21.7 0.8
2018-Jul-16 00:00 310 11 22.2 0.7
2018-Jul-15 23:00 320 12 22.4 0.7
2018-Jul-15 22:00 310 9 22.5 0.7
2018-Jul-15 21:00 310 7 22.7 0.7
2018-Jul-15 20:00 300 8 22.9 0.8
2018-Jul-15 19:00 330 7 22.9 0.7
2018-Jul-15 18:00 360 8 23.0 0.6
2018-Jul-15 17:00 350 7 23.0 0.6
2018-Jul-15 16:00 360 8 22.8 0.6
2018-Jul-15 15:00 360 6 22.7 0.6
2018-Jul-15 14:00 360 6 22.8 0.7
2018-Jul-15 13:00 010 4 23.0 0.7
2018-Jul-15 12:00 010 5 23.0 0.7
2018-Jul-15 11:00 010 4 23.1 0.6
2018-Jul-15 10:00 010 6 22.6 0.7
2018-Jul-15 09:00 360 6 22.5 0.7
2018-Jul-15 08:00 020 5 22.1 0.7
2018-Jul-15 07:00 020 6 22.0 0.7
2018-Jul-15 06:00 040 6 21.9 0.7
2018-Jul-15 05:00 060 5 22.0 0.8
2018-Jul-15 04:00 070 6 22.1 0.8
2018-Jul-15 03:00 060 6 22.2 0.7
2018-Jul-15 02:00 050 7 22.3 0.8
2018-Jul-15 01:00 040 8 22.4 0.8